カタログに戻る

SL-14 R/B

運用中PO
NORAD 20511·ROCKET BODY·🇷🇺 Russia

打ち上げ Feb 28, 1990 から Plesetsk Cosmodrome

Loading…

次のパス (今後24時間)

TLE

最新Source: Space-Track

元期: Sep 14, 2026, 09:22 UTC

1 20511U 90018B   26257.39066452  .00000303  00000-0  34918-4 0  9999
2 20511  82.5205  46.7039 0015885 186.1013 174.0010 14.82263175950533

AllMySatでSL-14 R/Bをリアルタイム追跡

Download on the App Store